STARLINK-4054 (53158 NORAD) Tracking and Keplerian Element Data

This shows tracking and keplerian element data for the satellite.

Feedback or suggestion? Click here.




ElementValue
Catalog53158
NameSTARLINK-4054
Epoch Orbit1185
Epoch Day270.25001157
Epoch Year2022
RAAN58.0905
Inclination53.2167
Eccentricity0.0001133
Argument of Perigee70.9813
Mean Anonmoly290.6495
Mean Motion15.1770689
Decay Rate-0.01126788
L11 53158U 22083AC 22270.25001157 -.01126788 00000+0 -59807-1 0 9995
L22 53158 53.2167 58.0905 0001133 70.9813 290.6495 15.17706890 11855

Live tracking and technical data element details for STARLINK-4054 (NORAD 53158). STARLINK-4054 can be tracked NOW for your location showing map with azimuth and elevation plus other details from your city location.

Track the satellite on the map from your city or location and see movement details for azimuth, elevation, latitude, longitude, range, height, and movement on the map or in text.







IsCatalogInMostPopularTable: catalog: 53158, numindb: 7
Update: records affected: 1



GetName: 53158 STARLINK-4054

Hit Count: updated at: Thu, 29 Sep 2022 11:41:30 GMT